[[{"header":{"parameterUnit":"m.s-1","parameterCategory":1,"la1":30.2991,"la2":30.254,"lo1":-89.0895,"lo2":-89.0444,"dy":0.0017,"dx":0.0017,"nx":28,"ny":28,"refTime":"2024-08-13T03:00:00:Z","depth":0,"parameterNumber":2,"parameterNumberName":"U-component_of_WINDS"},"data":[0,0,0,0,0,0,0,0,0,0,0,0,0,0,0,0,0,0,0,0,0,0,0,0,0,0,0,0,0,0,0,0,0,0,0,0,0,0,0,0,0,0,0,0,0,0,0,0,0,0,0,0,0,0,0,0,0,0,1.5351,1.5353,0,1.552,1.5522,1.5524,1.5532,1.553,1.5528,1.5526,1.5704,1.571,1.5717,0,0,0,0,0,0,0,0,0,0,0,0,0,1.5038,1.5043,1.5351,1.5353,1.5355,1.552,1.5522,1.5525,1.5532,1.553,1.5528,1.5525,1.5702,1.571,1.5717,0,0,0,0,0,0,0,0,0,0,0,0,0,1.5187,1.5045,1.5351,1.5379,1.5383,1.552,1.5522,1.5525,1.5533,1.553,1.5527,1.5524,1.5699,1.5709,1.5719,1.584,0,0,1.5749,1.5753,0,0,0,0,0,0,0,0,1.5179,1.5199,1.5373,1.5377,1.5382,1.5502,1.5477,1.5631,1.5534,1.5476,1.5526,1.5523,1.5639,1.5654,1.5693,1.5848,1.5856,1.575,1.5756,1.576,1.5763,0,0,0,0,0,0,0,1.5168,1.5191,1.5418,1.5375,1.5381,1.5384,1.5402,1.5506,1.5573,1.5481,1.5482,1.5502,1.5641,1.5683,1.5697,1.5858,1.5749,1.5758,1.5764,1.5768,1.612,1.6123,0,0,0,0,0,0,1.5152,1.5183,1.5413,1.5423,1.5271,1.5392,1.5412,1.5467,1.5572,1.5585,1.5504,1.5501,1.5668,1.5685,1.5703,1.585,1.576,1.5769,1.5775,1.6116,1.612,1.6124,0,0,0,0,0,0,1.5145,1.5172,1.5406,1.5303,1.5333,1.5401,1.5462,1.5472,1.5513,1.5589,1.5601,1.5534,1.5666,1.5689,1.5805,1.5856,1.5774,1.5783,1.6112,1.6118,1.6122,1.6146,0,0,0,0,0,0,1.5136,1.517,1.5216,1.5304,1.5339,1.5504,1.5465,1.5477,1.5529,1.5528,1.562,1.5633,1.5665,1.579,1.5815,1.5869,1.579,1.6108,1.6115,1.6121,1.6141,1.6151,1.616,0,0,0,0,0,1.5125,1.5217,1.5218,1.5246,1.5397,1.5507,1.5527,1.5561,1.5534,1.5581,1.5629,1.563,1.5847,1.5802,1.583,1.5887,1.6105,1.6113,1.612,1.6137,1.6149,1.616,0,0,0,0,0,0,1.5135,1.5229,1.5232,1.5355,1.5423,1.5508,1.5569,1.5574,1.5652,1.5647,1.5688,1.5709,1.5823,1.5867,1.5815,1.6009,1.5973,1.5986,1.5976,1.5989,1.5998,1.5985,1.5798,0,0,0,0,0,1.5152,1.5232,1.531,1.5412,1.5445,1.5501,1.555,1.557,1.5643,1.5672,1.5729,1.58,1.5884,1.5939,1.6021,1.6148,1.6167,1.6201,1.621,1.6218,1.6229,1.6298,1.6313,1.6149,1.6149,1.6149,0,0,1.5187,1.5248,1.5297,1.5415,1.547,1.5552,1.5525,1.5614,1.5676,1.5686,1.5798,1.5842,1.5925,1.6045,1.6102,1.6086,1.6279,1.6228,1.6233,1.624,1.6307,1.6323,1.6336,1.6154,1.6153,1.6153,0,0,1.5293,1.5348,1.5437,1.5492,1.5574,1.5611,1.5632,1.5717,1.5746,1.5858,1.5867,1.5942,1.6086,1.6144,1.6192,1.6318,1.6321,1.6344,1.6394,1.646,1.6473,1.6485,1.6528,1.6543,1.6355,1.6355,1.6355,0,1.5326,1.545,1.5483,1.5571,1.5622,1.5634,1.5725,1.5777,1.5883,1.5918,1.5899,1.6078,1.6135,1.6269,1.6299,1.6338,1.6364,1.6333,1.6468,1.648,1.6492,1.6533,1.655,1.6357,1.6357,1.6356,1.6356,0,1.5486,1.5572,1.5634,1.5733,1.5792,1.5882,1.5929,1.5985,1.6,1.6038,1.6152,1.622,1.6314,1.6348,1.6365,1.6484,1.6471,1.646,1.6424,1.6509,1.6549,1.6565,1.636,1.6359,1.6358,1.6358,0,0,1.5604,1.5719,1.5741,1.5785,1.5877,1.5944,1.6034,1.6124,1.6171,1.6243,1.6319,1.644,1.6429,1.6484,1.6507,1.6566,1.6659,1.6547,1.6549,1.6564,1.6793,1.68,1.6818,1.6661,1.6665,1.6667,1.6785,0,1.5718,1.5876,1.5908,1.6045,1.6123,1.6135,1.6213,1.6277,1.6316,1.6389,1.6432,1.6516,1.6496,1.6529,1.6587,1.6635,1.6705,1.6627,1.6732,1.6736,1.671,1.6839,1.6847,1.6956,1.6801,1.6804,1.6806,0,1.5873,1.5946,1.6091,1.617,1.6204,1.6273,1.6358,1.6428,1.6502,1.6525,1.6585,1.6602,1.6695,1.6655,1.6785,1.6731,1.6776,1.6806,1.6811,1.6821,1.6775,1.6852,1.6991,1.7007,1.6831,1.6829,1.6828,0,1.5941,1.6077,1.6181,1.6219,1.6314,1.6362,1.6404,1.6475,1.6527,1.6602,1.6636,1.6721,1.6768,1.6834,1.6873,1.684,1.6999,1.6963,1.7021,1.702,1.7053,1.705,1.72,1.7085,1.7084,1.7084,1.7084,0,1.6065,1.6153,1.6212,1.6276,1.6374,1.641,1.6507,1.6549,1.6611,1.6683,1.67,1.6767,1.6815,1.6889,1.6921,1.7022,1.7044,1.7065,1.7073,1.7063,1.706,1.7093,1.7086,1.7088,1.7087,1.7087,1.7086,0,1.6158,1.6202,1.6315,1.6395,1.6418,1.6486,1.6555,1.6618,1.6655,1.6746,1.677,1.683,1.6918,1.6963,1.7075,1.7095,1.7209,1.7213,1.7184,1.7186,1.7241,1.7235,1.7416,1.7441,1.731,1.7311,1.7312,0,1.6234,1.6301,1.6388,1.6436,1.6479,1.6557,1.661,1.6648,1.6702,1.679,1.6842,1.693,1.7003,1.7144,1.7198,1.7282,1.7287,1.7345,1.73,1.7288,1.7286,1.7281,1.7287,1.7352,1.7353,1.7355,1.7355,0,1.6362,1.638,1.6454,1.6536,1.6597,1.6664,1.673,1.6769,1.6818,1.6878,1.6968,1.7024,1.7136,1.7223,1.7311,1.7356,1.7364,1.7369,1.7387,1.7377,1.7357,1.7367,1.7204,1.7365,1.7364,1.7363,1.7362,1.7362,1.6448,1.6507,1.6577,1.6659,1.6712,1.6772,1.6834,1.6879,1.6954,1.7046,1.7065,1.7159,1.723,1.7349,1.7396,1.7471,1.7459,1.7485,1.7491,1.7497,1.7498,1.7346,1.7487,1.7487,1.7487,1.7487,1.7487,0,1.6575,1.662,1.6695,1.6785,1.685,1.685,1.6923,1.6977,1.7059,1.7124,1.7195,1.7297,1.7381,1.7441,1.7528,1.7576,1.7581,1.7597,1.7593,1.7603,1.7505,1.748,1.7591,1.7591,1.7591,1.7591,1.7591,1.7591,1.6649,1.6749,1.6775,1.6901,1.6946,1.7037,1.7078,1.7134,1.7186,1.7298,1.7368,1.7406,1.7469,1.756,1.7638,1.7653,1.7683,1.7699,1.7714,1.7621,1.761,1.76,1.7576,1.7705,1.7705,1.7806,1.7807,1.7807]},{"header":{"parameterUnit":"m.s-1","parameterCategory":1,"la1":30.2991,"la2":30.254,"lo1":-89.0895,"lo2":-89.0444,"dy":0.0017,"dx":0.0017,"nx":28,"ny":28,"refTime":"2024-08-13T03:00:00:Z","depth":0,"parameterNumber":3,"parameterNumberName":"V-component_of_WINDS"},"data":[0,0,0,0,0,0,0,0,0,0,0,0,0,0,0,0,0,0,0,0,0,0,0,0,0,0,0,0,0,0,0,0,0,0,0,0,0,0,0,0,0,0,0,0,0,0,0,0,0,0,0,0,0,0,0,0,0,0,3.172,3.1719,0,3.1652,3.1651,3.165,3.1586,3.1585,3.1584,3.1584,3.1512,3.1511,3.151,0,0,0,0,0,0,0,0,0,0,0,0,0,3.1792,3.1791,3.172,3.1719,3.1718,3.1652,3.1651,3.165,3.1586,3.1585,3.1584,3.1583,3.1513,3.1511,3.151,0,0,0,0,0,0,0,0,0,0,0,0,0,3.1746,3.1791,3.172,3.1678,3.1674,3.1652,3.1651,3.165,3.1586,3.1585,3.1584,3.1583,3.1513,3.1512,3.151,3.1523,0,0,3.1505,3.1504,0,0,0,0,0,0,0,0,3.1749,3.1743,3.1685,3.1681,3.1676,3.1626,3.165,3.1607,3.1587,3.162,3.1584,3.1582,3.1551,3.1546,3.1536,3.152,3.1517,3.1504,3.1503,3.1503,3.1502,0,0,0,0,0,0,0,3.1752,3.1746,3.1693,3.1685,3.1679,3.1662,3.1654,3.1642,3.1593,3.1617,3.1612,3.1605,3.1548,3.1538,3.1534,3.1516,3.1505,3.1503,3.1502,3.1501,3.1504,3.1505,0,0,0,0,0,0,3.1762,3.1749,3.1695,3.1691,3.171,3.1662,3.1653,3.1643,3.1593,3.1584,3.1606,3.1602,3.1541,3.1536,3.1531,3.154,3.1503,3.1501,3.15,3.1503,3.1504,3.1505,0,0,0,0,0,0,3.1764,3.1758,3.1698,3.1719,3.171,3.1662,3.1652,3.1643,3.1632,3.1585,3.1575,3.1604,3.154,3.1534,3.1525,3.1537,3.15,3.1499,3.1501,3.1503,3.1505,3.1561,0,0,0,0,0,0,3.1766,3.1759,3.1764,3.1719,3.1709,3.1694,3.1652,3.1642,3.1629,3.1624,3.1581,3.1572,3.1539,3.1528,3.1523,3.1534,3.1497,3.15,3.1502,3.1504,3.1558,3.1565,3.1571,0,0,0,0,0,3.1769,3.1783,3.1764,3.1758,3.1714,3.1695,3.1689,3.165,3.1631,3.1635,3.1604,3.1574,3.1538,3.1528,3.1522,3.1532,3.1499,3.1502,3.1504,3.1555,3.1564,3.157,0,0,0,0,0,0,3.183,3.1776,3.1755,3.1755,3.173,3.1684,3.1688,3.166,3.164,3.1635,3.1588,3.1579,3.1575,3.1553,3.1543,3.1541,3.1514,3.1515,3.1555,3.1562,3.1568,3.1572,3.1496,0,0,0,0,0,3.1843,3.1832,3.1786,3.1791,3.1779,3.1736,3.1726,3.1699,3.167,3.1659,3.1628,3.1601,3.1582,3.1572,3.1553,3.1556,3.1544,3.156,3.1566,3.1572,3.1572,3.1569,3.1575,3.1513,3.1513,3.1513,0,0,3.1871,3.184,3.1836,3.1802,3.1779,3.1767,3.1727,3.1717,3.1707,3.1657,3.1646,3.1623,3.1589,3.1586,3.1582,3.1567,3.1587,3.1575,3.1579,3.1577,3.1572,3.1578,3.1583,3.1515,3.1515,3.1514,0,0,3.1914,3.1892,3.1891,3.1869,3.1835,3.1806,3.1807,3.1764,3.1747,3.1735,3.1696,3.1684,3.1655,3.1632,3.1617,3.1651,3.1621,3.1646,3.1677,3.1675,3.1679,3.1683,3.1693,3.1697,3.1648,3.1648,3.1648,0,3.1952,3.1934,3.1895,3.1886,3.1871,3.1826,3.1825,3.1805,3.1767,3.1757,3.1741,3.1702,3.1677,3.1665,3.1673,3.1664,3.166,3.165,3.1682,3.1686,3.1689,3.1697,3.1701,3.1651,3.1651,3.1651,3.165,0,3.1981,3.1969,3.1973,3.1937,3.1923,3.1918,3.1877,3.1867,3.1841,3.1814,3.1802,3.177,3.1742,3.1738,3.1713,3.1723,3.1714,3.1691,3.1662,3.1698,3.1705,3.1708,3.1656,3.1654,3.1654,3.1653,0,0,3.2059,3.2001,3.2003,3.1985,3.1944,3.1933,3.1926,3.19,3.1891,3.1867,3.1857,3.1834,3.1811,3.1794,3.1766,3.1764,3.1789,3.1741,3.1739,3.1748,3.1794,3.181,3.1814,3.1771,3.1771,3.1771,3.1796,0,3.2093,3.2077,3.2042,3.2037,3.2023,3.198,3.1974,3.1947,3.1921,3.1906,3.1877,3.1859,3.1833,3.1822,3.1819,3.1787,3.1797,3.1785,3.1759,3.1758,3.1766,3.1818,3.1835,3.1859,3.1799,3.1799,3.18,0,3.213,3.2107,3.2101,3.206,3.2053,3.2048,3.2019,3.2006,3.1974,3.1956,3.1936,3.1905,3.1893,3.1869,3.185,3.1842,3.183,3.1813,3.1813,3.1806,3.1779,3.181,3.1867,3.187,3.1804,3.1804,3.1803,0,3.2183,3.2152,3.2143,3.213,3.2082,3.2079,3.2059,3.2026,3.2012,3.1988,3.1977,3.1952,3.1938,3.1918,3.188,3.1866,3.1864,3.1838,3.1846,3.1847,3.1845,3.1845,3.1898,3.1843,3.1843,3.1843,3.1843,0,3.2223,3.222,3.2166,3.2161,3.2156,3.2115,3.211,3.2086,3.2058,3.2045,3.2007,3.1996,3.1949,3.1932,3.1902,3.189,3.1884,3.1867,3.1858,3.1868,3.187,3.1857,3.1853,3.1844,3.1843,3.1843,3.1843,0,3.228,3.2244,3.2232,3.2188,3.2177,3.2175,3.2136,3.2128,3.2101,3.2086,3.208,3.2036,3.2014,3.1975,3.1942,3.1922,3.1914,3.1902,3.1925,3.1919,3.1929,3.1927,3.1972,3.1975,3.1921,3.1922,3.1922,0,3.2305,3.2302,3.2258,3.2248,3.2229,3.2213,3.2198,3.2158,3.2144,3.2107,3.2103,3.2079,3.2056,3.2023,3.1987,3.1961,3.1946,3.1963,3.1941,3.1951,3.1942,3.1942,3.194,3.1967,3.1968,3.1969,3.1969,0,3.2354,3.2337,3.2318,3.2292,3.2276,3.2254,3.223,3.2223,3.2177,3.2163,3.2141,3.2124,3.209,3.2065,3.2033,3.2011,3.1981,3.1977,3.1977,3.1986,3.1998,3.1988,3.1935,3.1976,3.1975,3.1974,3.1974,3.1974,3.2394,3.2388,3.2356,3.2335,3.2313,3.2292,3.2282,3.2253,3.2234,3.2204,3.2181,3.216,3.2126,3.2082,3.2061,3.2042,3.2029,3.203,3.2029,3.2029,3.2032,3.2004,3.2037,3.2036,3.2036,3.2036,3.2036,0,3.2437,3.2415,3.2397,3.2365,3.2348,3.2325,3.2296,3.2284,3.2265,3.2238,3.2217,3.219,3.2165,3.2128,3.21,3.2092,3.2078,3.2086,3.2084,3.2079,3.2047,3.2048,3.2097,3.2097,3.2097,3.2097,3.2097,3.2097,3.2458,3.2446,3.2425,3.2402,3.2379,3.2358,3.2344,3.2323,3.23,3.2272,3.2252,3.2229,3.2196,3.2165,3.2141,3.213,3.212,3.2132,3.2117,3.2087,3.2082,3.2076,3.2077,3.2131,3.2131,3.215,3.215,3.215]}]]